This is the latest recevied weather packets stored in our database for station/object OK1HOL-13. If no packets are shown the sender has not sent any weather packets the latest 10 day(s).
| Time | Temp. | Humidity | Pressure | Rain* | Wind** | Luminosity | Snow |
|---|---|---|---|---|---|---|---|
| 1778021162 | 14.44° C | 86% | 1006.2 hPa | - | - | 0 W/m² | - |
| 1778020561 | 14.44° C | 88% | 1006.3 hPa | - | - | 0 W/m² | - |
| 1778019961 | 14.44° C | 87% | 1006.2 hPa | - | - | 0 W/m² | - |
| 1778019367 | 14.44° C | 87% | 1006.3 hPa | - | - | 0 W/m² | - |
| 1778018761 | 15° C | 87% | 1006.4 hPa | - | - | 0 W/m² | - |
| 1778018161 | 15° C | 87% | 1006.4 hPa | - | - | 0 W/m² | - |
| 1778017561 | 15.56° C | 88% | 1006.5 hPa | - | - | 0 W/m² | - |
| 1778016961 | 15.56° C | 87% | 1006.5 hPa | - | - | 0 W/m² | - |
| 1778016362 | 16.11° C | 85% | 1006.4 hPa | - | - | 0 W/m² | - |
| 1778015761 | 16.11° C | 82% | 1006.3 hPa | - | - | 0 W/m² | - |
| 1778015161 | 16.67° C | 76% | 1006.4 hPa | - | - | 0 W/m² | - |
| 1778014562 | 17.22° C | 69% | 1006 hPa | - | - | 0 W/m² | - |
| 1778013961 | 18.33° C | 63% | 1005.4 hPa | - | - | 0 W/m² | - |
| 1778013361 | 18.89° C | 61% | 1005 hPa | - | - | 0 W/m² | - |
| 1778012761 | 19.44° C | 57% | 1004.5 hPa | - | - | 0 W/m² | - |
| 1778012161 | 19.44° C | 51% | 1004.3 hPa | - | - | 0 W/m² | - |
| 1778011561 | 18.89° C | 53% | 1004.2 hPa | - | - | 0 W/m² | - |
| 1778010961 | 19.44° C | 52% | 1003.7 hPa | - | - | 0 W/m² | - |
| 1778010361 | 18.89° C | 53% | 1003.5 hPa | - | - | 0 W/m² | - |
| 1778009761 | 19.44° C | 53% | 1003.3 hPa | - | - | 0 W/m² | - |
| 1778009161 | 19.44° C | 52% | 1003.3 hPa | - | - | 0 W/m² | - |
| 1778008561 | 19.44° C | 52% | 1003.3 hPa | - | - | 0 W/m² | - |
| 1778007961 | 19.44° C | 50% | 1003.5 hPa | - | - | 0 W/m² | - |
| 1778007361 | 20° C | 49% | 1003.6 hPa | - | - | 0 W/m² | - |
| 1778006761 | 20° C | 46% | 1003.7 hPa | - | - | 0 W/m² | - |
* Rain since midnight (hover to see other rain measurements)
** Current wind speed in m/s (hover to see current wind gust speed)